Starlink 11510

operational
NORAD ID: 62516 Int'l Des: 2025-004 Owner: SPXS Country: US Constellation: starlink
LEOCIRCULAR

关于 Starlink 11510

正在加载描述...

实时位置

正在加载3D地球...

即将过境

高度历史

Altitude vs Time

uPlot chart will show altitude changes over time

两行轨道根数

1 62516U 25004F 25308.16478536 .00370473 00000-0 27517-2 0 9997
2 62516 42.9978 107.6287 0000816 27.2065 332.8846 15.70944341 47462
Epoch: Nov 4, 2025 • Age: 10 hours

当前状态

高度 364.6 km
速度 7.69 km/s
星下点 -33.36°S, 160.18°E
发射日期 Jan 8, 2025
运行时间 0.8 years
类型 internet

技术详情

分类 Payload
质量 960.00 kg
干质量 910.00 kg
总质量 960.00 kg
长度 0.30 m
直径 4.10 m
跨度 29.00 m
形状 Box + pan
制造商 SPXS
平台类型 Starlink V2MD
阶段状态 In Orbit
所有者/国家 SPXS/US

大型星座

Loading constellations...